HG5PBP-13 Weather Reports


time (UTC)temp
C
wind
direction
speed
KPH
gust
KPH
rain 1hr
cm
rain 24hr
cm
rain mn
cm
humidity
%
barometer
mb
20260507052432 13 133 3.2 8.0 0.00 0.08 0.00 7 1010.4
20260507051932 13 257 3.2 9.7 0.00 0.08 0.00 7 1010.4
20260507051432 13 266 3.2 12.9 0.00 0.08 0.00 7 1010.4
20260507050432 13 242 6.4 8.0 0.00 0.08 0.00 7 1010.1
20260507045932 13 260 3.2 12.9 0.00 0.08 0.00 7 1010.3
20260507045432 13 211 1.6 8.0 0.00 0.08 0.00 7 1010.3
20260507044932 13 212 6.4 8.0 0.00 0.08 0.00 7 1010.2
20260507043932 12 261 3.2 9.7 0.00 0.08 0.00 7 1010.0
20260507043432 13 261 3.2 16.1 0.00 0.08 0.00 7 1009.6
20260507042932 13 260 3.2 12.9 0.00 0.08 0.00 7 1009.8
20260507042432 13 236 6.4 19.3 0.00 0.08 0.00 7 1009.6
20260507041932 13 226 8.0 16.1 0.00 0.08 0.00 7 1009.5
20260507041432 13 227 8.0 12.9 0.00 0.08 0.00 7 1009.4
20260507040932 12 236 3.2 22.5 0.00 0.08 0.00 8 1009.4
20260507040432 12 248 8.0 16.1 0.00 0.08 0.00 8 1009.5
20260507035932 12 257 12.9 22.5 0.00 0.08 0.00 8 1009.3
20260507035432 12 232 9.7 14.5 0.00 0.08 0.00 8 1009.2
20260507034932 12 211 8.0 22.5 0.00 0.08 0.00 8 1009.2
20260507034431 12 230 8.0 14.5 0.00 0.08 0.00 8 1009.4
20260507033931 12 294 6.4 14.5 0.00 0.08 0.00 8 1009.4
20260507033431 12 264 11.3 17.7 0.00 0.08 0.00 8 1009.3
20260507032931 12 232 6.4 14.5 0.00 0.08 0.00 8 1009.3
20260507032431 13 243 3.2 16.1 0.00 0.08 0.00 8 1009.3
20260507031931 13 226 12.9 22.5 0.00 0.08 0.00 7 1009.5
20260507031431 13 250 9.7 17.7 0.00 0.08 0.00 7 1009.3
20260507030931 13 201 6.4 17.7 0.00 0.08 0.00 7 1009.1
20260507030431 13 312 8.0 16.1 0.00 0.08 0.00 7 1009.3
20260507025931 13 253 6.4 20.9 0.00 0.08 0.00 7 1009.3
20260507025431 13 255 6.4 17.7 0.00 0.08 0.00 7 1009.3
20260507024931 13 215 4.8 19.3 0.00 0.08 0.00 7 1009.1
20260507024431 13 307 9.7 16.1 0.00 0.08 0.00 7 1009.1
20260507023931 13 238 9.7 20.9 0.00 0.08 0.00 7 1009.3
20260507023431 13 254 6.4 19.3 0.00 0.08 0.00 7 1009.1
20260507022931 13 326 8.0 19.3 0.00 0.08 0.00 7 1009.1
20260507022431 13 189 8.0 19.3 0.00 0.08 0.00 7 1009.1
20260507021931 13 222 8.0 19.3 0.00 0.08 0.00 7 1009.0
20260507021431 14 283 4.8 19.3 0.00 0.08 0.00 7 1008.8
20260507020931 14 223 8.0 19.3 0.00 0.08 0.00 7 1009.1
20260507020431 14 264 11.3 19.3 0.00 0.08 0.00 7 1009.3
20260507015931 14 288 9.7 16.1 0.00 0.08 0.00 7 1008.8
20260507015431 14 290 6.4 22.5 0.00 0.08 0.00 7 1009.1
20260507014931 14 249 6.4 17.7 0.00 0.08 0.00 7 1009.0
20260507014431 13 251 6.4 16.1 0.00 0.08 0.00 7 1008.9
20260507013931 13 302 8.0 16.1 0.00 0.08 0.00 7 1009.2
20260507013431 13 259 8.0 20.9 0.00 0.08 0.00 7 1009.1
20260507012931 13 244 8.0 19.3 0.00 0.08 0.00 7 1009.3
20260507012431 14 308 8.0 17.7 0.00 0.08 0.00 7 1009.3
20260507011931 14 134 4.8 19.3 0.00 0.08 0.00 7 1009.2
20260507011431 14 239 12.9 17.7 0.00 0.08 0.00 7 1009.4
20260507010931 14 235 12.9 17.7 0.00 0.08 0.00 7 1009.1
20260507010431 14 273 6.4 19.3 0.00 0.08 0.00 7 1009.1
20260507005930 14 263 4.8 12.9 0.00 0.08 0.00 7 1009.2
20260507005430 14 279 6.4 17.7 0.00 0.08 0.00 7 1009.1
20260507004930 14 238 6.4 12.9 0.00 0.08 0.00 7 1009.2
20260507004431 14 247 4.8 17.7 0.00 0.08 0.00 7 1009.1
20260507003930 14 284 4.8 12.9 0.00 0.08 0.00 7 1009.3
20260507003430 14 243 3.2 16.1 0.00 0.08 0.00 7 1009.3
20260507002930 14 273 6.4 24.1 0.00 0.08 0.00 7 1009.4
20260507002430 14 277 1.6 14.5 0.00 0.08 0.00 7 1009.3
20260507001930 14 259 3.2 12.9 0.00 0.08 0.00 7 1009.5
20260507001430 15 223 14.5 19.3 0.00 0.08 0.00 7 1009.5
20260507000930 15 276 3.2 20.9 0.00 0.08 0.00 7 1009.5
20260507000430 15 253 3.2 14.5 0.00 0.08 0.00 7 1009.7
20260506235930 14 287 6.4 14.5 0.00 0.08 0.00 7 1009.6
20260506235430 14 188 9.7 16.1 0.00 0.08 0.00 7 1009.9
20260506234930 14 236 3.2 6.4 0.00 0.08 0.00 7 1009.7
20260506234430 14 245 4.8 17.7 0.00 0.08 0.00 7 1009.8
20260506233930 14 209 8.0 12.9 0.00 0.08 0.00 7 1009.7
20260506233430 14 269 6.4 8.0 0.00 0.08 0.00 7 1009.8
20260506232930 14 246 1.6 12.9 0.00 0.08 0.00 8 1010.0
20260506232430 13 182 1.6 12.9 0.00 0.08 0.00 8 1009.8
20260506231930 13 254 9.7 17.7 0.00 0.08 0.00 8 1010.3
20260506231430 13 251 3.2 17.7 0.00 0.08 0.00 8 1010.0
20260506230930 13 286 6.4 17.7 0.00 0.08 0.00 8 1010.1
20260506230430 13 203 11.3 24.1 0.00 0.08 0.00 8 1010.4
20260506225930 13 210 8.0 19.3 0.00 0.08 0.00 8 1010.1
20260506225430 14 175 9.7 16.1 0.00 0.05 0.00 7 1009.9
20260506224930 14 175 12.9 29.0 0.00 0.05 0.00 7 1009.9
20260506224430 15 187 9.7 20.9 0.00 0.05 0.00 7 1010.0
20260506223930 15 272 3.2 19.3 0.00 0.05 0.00 7 1009.9
20260506223430 15 142 3.2 20.9 0.00 0.05 0.00 7 1009.7
20260506222930 15 199 9.7 17.7 0.00 0.05 0.00 7 1009.4
20260506222429 15 11 4.8 19.3 0.00 0.05 0.00 7 1009.2
20260506221929 15 231 4.8 19.3 0.00 0.05 0.00 7 1008.8
20260506221429 15 244 8.0 19.3 0.00 0.05 0.00 7 1008.8
20260506220929 15 236 6.4 24.1 0.00 0.05 0.00 7 1008.9
20260506220429 15 153 4.8 9.7 0.00 0.05 0.00 7 1009.2
20260506215929 15 279 1.6 16.1 0.00 0.05 0.05 7 1009.0
20260506215429 15 240 4.8 12.9 0.00 0.05 0.05 7 1009.0
20260506214929 15 259 6.4 9.7 0.00 0.05 0.05 7 1008.8
20260506214429 15 271 6.4 9.7 0.00 0.05 0.05 7 1008.7
20260506213929 15 251 3.2 16.1 0.00 0.05 0.05 7 1008.7
20260506213429 16 247 9.7 17.7 0.00 0.05 0.05 7 1008.8
20260506212929 16 231 8.0 17.7 0.00 0.05 0.05 7 1008.8
20260506212429 16 245 9.7 16.1 0.00 0.05 0.05 7 1009.0
20260506211929 16 231 8.0 12.9 0.00 0.05 0.05 7 1008.7
20260506211429 15 286 9.7 24.1 0.00 0.05 0.05 7 1008.9
20260506210929 15 260 6.4 16.1 0.00 0.08 0.05 7 1008.7
20260506210429 15 240 6.4 14.5 0.00 0.08 0.05 7 1008.7
20260506205929 15 270 6.4 17.7 0.03 0.05 0.05 7 1008.9
20260506205429 15 256 6.4 12.9 0.05 0.10 0.05 7 1008.8
20260506204929 15 352 8.0 16.1 0.05 0.10 0.05 7 1008.9
20260506204429 15 319 6.4 8.0 0.05 0.10 0.05 7 1009.0
20260506203929 15 244 6.4 14.5 0.05 0.10 0.05 7 1009.1
20260506203429 14 250 4.8 12.9 0.05 0.10 0.05 8 1009.0
20260506202929 14 239 8.0 20.9 0.05 0.10 0.05 8 1009.2
20260506202429 14 158 6.4 16.1 0.05 0.10 0.05 8 1009.3
20260506201929 14 202 6.4 16.1 0.05 0.10 0.05 8 1009.5
20260506201429 14 192 4.8 12.9 0.05 0.10 0.05 8 1009.5
20260506200929 14 254 6.4 20.9 0.05 0.08 0.05 8 1009.8
20260506200429 15 257 4.8 20.9 0.05 0.08 0.05 8 1009.6
20260506195929 15 169 12.9 22.5 0.03 0.03 0.03 7 1009.6
20260506195428 16 251 9.7 20.9 0.00 0.00 0.00 7 1009.3
20260506194928 17 254 9.7 24.1 0.00 0.00 0.00 6 1009.1
20260506194428 17 231 12.9 22.5 0.00 0.00 0.00 6 1008.8
20260506193928 18 260 8.0 22.5 0.00 0.00 0.00 6 1008.5
20260506193428 18 270 16.1 30.6 0.00 0.00 0.00 5 1008.5
20260506192928 18 225 8.0 16.1 0.00 0.00 0.00 5 1008.4
20260506192428 18 188 1.6 9.7 0.00 0.00 0.00 5 1008.1
20260506191928 18 235 1.6 6.4 0.00 0.00 0.00 5 1008.2
20260506191428 18 265 6.4 9.7 0.00 0.00 0.00 5 1008.0
20260506190928 18 242 1.6 9.7 0.00 0.00 0.00 5 1008.0
20260506190428 18 237 6.4 9.7 0.00 0.00 0.00 5 1008.0
20260506185928 18 265 3.2 14.5 0.00 0.00 0.00 5 1007.9
20260506185428 18 275 4.8 8.0 0.00 0.00 0.00 5 1008.0
20260506184928 18 262 4.8 6.4 0.00 0.00 0.00 5 1008.0
20260506184428 18 120 0.0 12.9 0.00 0.00 0.00 5 1008.1
20260506183928 18 230 3.2 8.0 0.00 0.00 0.00 5 1007.9
20260506183429 18 286 1.6 14.5 0.00 0.00 0.00 5 1008.1
20260506182928 18 222 1.6 12.9 0.00 0.00 0.00 5 1007.6
20260506182428 18 279 1.6 8.0 0.00 0.00 0.00 5 1007.7
20260506181928 18 204 3.2 8.0 0.00 0.00 0.00 5 1007.7
20260506181428 18 239 1.6 6.4 0.00 0.00 0.00 5 1007.4
20260506180928 18 299 1.6 9.7 0.00 0.00 0.00 5 1007.6
20260506180428 18 251 1.6 4.8 0.00 0.00 0.00 5 1007.6
20260506175928 18 265 1.6 6.4 0.00 0.00 0.00 5 1007.4
20260506175428 18 253 4.8 14.5 0.00 0.00 0.00 5 1007.6
20260506174928 18 218 3.2 6.4 0.00 0.00 0.00 5 1007.2
20260506174428 19 291 1.6 8.0 0.00 0.00 0.00 5 1007.3
20260506173928 19 231 1.6 4.8 0.00 0.00 0.00 5 1007.5
20260506173428 19 252 0.0 4.8 0.00 0.00 0.00 5 1007.6
20260506172928 19 269 4.8 6.4 0.00 0.00 0.00 5 1007.6
20260506172427 19 135 1.6 6.4 0.00 0.00 0.00 5 1007.5
20260506171927 20 292 1.6 6.4 0.00 0.00 0.00 5 1007.5
20260506171427 20 276 6.4 16.1 0.00 0.00 0.00 5 1007.2
20260506170927 20 249 3.2 9.7 0.00 0.00 0.00 5 1007.4
20260506170427 20 256 4.8 8.0 0.00 0.00 0.00 5 1007.2
20260506165927 20 261 1.6 6.4 0.00 0.00 0.00 5 1007.4
20260506165427 20 253 1.6 8.0 0.00 0.00 0.00 5 1007.1
20260506164927 20 310 1.6 6.4 0.00 0.00 0.00 5 1007.2
20260506164427 20 229 4.8 8.0 0.00 0.00 0.00 5 1007.1
20260506163927 20 267 3.2 8.0 0.00 0.00 0.00 5 1007.3
20260506163427 20 134 3.2 12.9 0.00 0.00 0.00 5 1007.4
20260506162927 20 338 8.0 12.9 0.00 0.00 0.00 5 1007.4
20260506162427 20 200 4.8 6.4 0.00 0.00 0.00 5 1007.3
20260506161927 20 214 6.4 16.1 0.00 0.00 0.00 5 1007.3
20260506161427 20 309 8.0 16.1 0.00 0.00 0.00 5 1007.3
20260506160927 20 181 3.2 12.9 0.00 0.00 0.00 5 1007.3
20260506160427 21 251 3.2 14.5 0.00 0.00 0.00 5 1007.1
20260506155927 21 270 6.4 14.5 0.00 0.00 0.00 5 1007.4
20260506155427 21 239 6.4 20.9 0.00 0.00 0.00 5 1007.4
20260506154927 21 226 8.0 19.3 0.00 0.00 0.00 5 1007.2
20260506154427 21 177 11.3 19.3 0.00 0.00 0.00 5 1007.3
20260506153927 21 220 8.0 12.9 0.00 0.00 0.00 4 1007.3
20260506153427 21 218 1.6 6.4 0.00 0.00 0.00 5 1007.5
20260506152927 21 271 3.2 9.7 0.00 0.00 0.00 4 1007.3
20260506152427 21 149 6.4 20.9 0.00 0.00 0.00 5 1007.4
20260506151927 21 187 9.7 12.9 0.00 0.00 0.00 5 1007.3
20260506151427 21 170 8.0 14.5 0.00 0.00 0.00 4 1007.4
20260506150927 21 208 1.6 8.0 0.00 0.00 0.00 4 1007.5
20260506150427 21 221 4.8 17.7 0.00 0.00 0.00 4 1007.4
20260506145927 21 148 12.9 29.0 0.00 0.00 0.00 4 1007.1
20260506145427 21 176 0.0 17.7 0.00 0.00 0.00 4 1007.2
20260506144926 22 217 8.0 16.1 0.00 0.00 0.00 4 1007.0
20260506144427 22 216 9.7 16.1 0.00 0.00 0.00 4 1007.0
20260506143926 21 137 1.6 8.0 0.00 0.00 0.00 4 1007.4
20260506143426 21 265 3.2 20.9 0.00 0.00 0.00 4 1007.4
20260506142926 21 135 4.8 17.7 0.00 0.00 0.00 4 1007.3
20260506142426 21 218 3.2 19.3 0.00 0.00 0.00 4 1007.3
20260506141926 21 233 12.9 17.7 0.00 0.00 0.00 4 1007.7
20260506141426 21 197 9.7 17.7 0.00 0.00 0.00 4 1007.8
20260506140926 21 174 11.3 24.1 0.00 0.00 0.00 4 1007.6
20260506140426 22 205 6.4 14.5 0.00 0.00 0.00 4 1007.6
20260506135926 22 170 8.0 24.1 0.00 0.00 0.00 4 1007.4
20260506135426 22 130 16.1 46.7 0.00 0.00 0.00 4 1007.3
20260506134926 22 216 4.8 19.3 0.00 0.00 0.00 4 1007.3
20260506134426 22 199 8.0 17.7 0.00 0.00 0.00 4 1007.2
20260506133426 22 285 6.4 20.9 0.00 0.00 0.00 4 1007.6
20260506132926 22 169 19.3 40.2 0.00 0.00 0.00 4 1007.6
20260506132426 22 150 6.4 17.7 0.00 0.00 0.00 4 1007.5
20260506131926 22 242 12.9 27.4 0.00 0.00 0.00 4 1007.7
20260506131426 22 189 11.3 17.7 0.00 0.00 0.00 4 1007.8
20260506130926 22 179 4.8 17.7 0.00 0.00 0.00 4 1007.6
20260506130426 21 140 11.3 20.9 0.00 0.00 0.00 4 1007.9
20260506125926 21 125 12.9 29.0 0.00 0.00 0.00 4 1007.9
20260506125426 21 269 8.0 22.5 0.00 0.00 0.00 4 1008.1
20260506124926 21 231 14.5 24.1 0.00 0.00 0.00 4 1008.1
20260506124426 21 173 9.7 27.4 0.00 0.00 0.00 4 1007.8
20260506123926 21 151 6.4 24.1 0.00 0.00 0.00 4 1007.8
20260506123426 21 145 9.7 14.5 0.00 0.00 0.00 4 1008.0
20260506122926 21 150 16.1 33.8 0.00 0.00 0.00 4 1008.2
20260506122426 21 232 12.9 19.3 0.00 0.00 0.00 4 1007.9
20260506121926 21 162 4.8 17.7 0.00 0.00 0.00 4 1008.2
20260506121426 21 246 4.8 16.1 0.00 0.00 0.00 4 1008.2
20260506120925 21 181 16.1 32.2 0.00 0.00 0.00 4 1007.9
20260506120425 21 179 19.3 32.2 0.00 0.00 0.00 4 1008.1
20260506115925 21 184 12.9 29.0 0.00 0.00 0.00 5 1008.0
20260506115425 21 301 14.5 30.6 0.00 0.00 0.00 5 1008.1
20260506114925 21 143 4.8 20.9 0.00 0.00 0.00 5 1008.1
20260506114425 21 160 8.0 12.9 0.00 0.00 0.00 5 1008.1
20260506113925 21 179 8.0 20.9 0.00 0.00 0.00 5 1008.1
20260506113425 21 216 17.7 37.0 0.00 0.00 0.00 5 1008.5
20260506112925 20 239 9.7 22.5 0.00 0.00 0.00 5 1008.3
20260506112425 20 200 12.9 24.1 0.00 0.00 0.00 5 1008.6
20260506111925 20 191 24.1 29.0 0.00 0.00 0.00 5 1008.5
20260506111425 20 218 16.1 30.6 0.00 0.00 0.00 5 1008.5
20260506110925 20 217 32.2 35.4 0.00 0.00 0.00 5 1008.7
20260506110425 20 175 14.5 22.5 0.00 0.00 0.00 5 1008.5
20260506105925 20 210 12.9 32.2 0.00 0.00 0.00 5 1008.7
20260506105425 20 162 4.8 20.9 0.00 0.00 0.00 5 1008.6
20260506104925 20 202 6.4 20.9 0.00 0.00 0.00 5 1008.6
20260506104425 20 187 16.1 29.0 0.00 0.00 0.00 5 1008.7
20260506103925 20 156 9.7 19.3 0.00 0.00 0.00 5 1008.6
20260506103425 20 146 4.8 16.1 0.00 0.00 0.00 5 1008.6
20260506102925 20 205 4.8 24.1 0.00 0.00 0.00 5 1008.9
20260506102425 19 130 4.8 22.5 0.00 0.00 0.00 5 1009.0
20260506101925 19 171 4.8 22.5 0.00 0.00 0.00 5 1009.1
20260506101425 18 324 8.0 19.3 0.00 0.00 0.00 6 1008.9
20260506100925 18 104 11.3 17.7 0.00 0.00 0.00 6 1009.0
20260506100425 18 229 11.3 24.1 0.00 0.00 0.00 6 1009.1
20260506095925 18 179 6.4 12.9 0.00 0.00 0.00 6 1009.2
20260506095425 18 188 12.9 29.0 0.00 0.00 0.00 6 1009.4
20260506094924 18 222 9.7 16.1 0.00 0.00 0.00 6 1009.0
20260506094425 18 143 9.7 27.4 0.00 0.00 0.00 6 1009.2
20260506093924 17 203 8.0 19.3 0.00 0.00 0.00 6 1009.2
20260506093424 17 189 16.1 19.3 0.00 0.00 0.00 6 1009.3
20260506092924 17 245 6.4 16.1 0.00 0.00 0.00 6 1009.0
20260506092424 17 208 4.8 16.1 0.00 0.00 0.00 6 1009.0
20260506091924 17 204 11.3 35.4 0.00 0.00 0.00 6 1009.3
20260506091424 17 156 16.1 29.0 0.00 0.00 0.00 6 1009.2
20260506090924 17 191 16.1 22.5 0.00 0.00 0.00 6 1009.2
20260506090424 17 313 8.0 22.5 0.00 0.00 0.00 6 1009.2
20260506085924 17 209 6.4 16.1 0.00 0.00 0.00 6 1009.2
20260506085424 17 162 9.7 17.7 0.00 0.00 0.00 6 1009.2
20260506084924 17 134 6.4 20.9 0.00 0.00 0.00 6 1009.1
20260506084424 17 173 11.3 30.6 0.00 0.00 0.00 6 1009.6
20260506083924 17 140 12.9 27.4 0.00 0.00 0.00 6 1009.2
20260506083424 17 188 8.0 17.7 0.00 0.00 0.00 6 1009.4
20260506082924 16 153 16.1 19.3 0.00 0.00 0.00 6 1009.2
20260506082424 16 149 12.9 19.3 0.00 0.00 0.00 6 1009.3
20260506081924 16 127 6.4 14.5 0.00 0.00 0.00 6 1009.3
20260506081424 16 114 3.2 14.5 0.00 0.00 0.00 6 1009.4
20260506080924 16 175 3.2 14.5 0.00 0.00 0.00 6 1009.5
20260506080424 16 148 12.9 17.7 0.00 0.00 0.00 6 1009.4
20260506073424 15 147 3.2 22.5 0.00 0.00 0.00 6 1009.7
20260506072924 15 207 6.4 8.0 0.00 0.00 0.00 6 1009.5
20260506072424 15 261 3.2 12.9 0.00 0.00 0.00 7 1009.6
20260506071924 14 276 4.8 14.5 0.00 0.00 0.00 7 1009.6
20260506071424 14 201 4.8 9.7 0.00 0.00 0.00 7 1009.7
20260506070923 14 157 4.8 9.7 0.00 0.00 0.00 7 1009.6
20260506070423 13 206 14.5 22.5 0.00 0.00 0.00 7 1009.6
20260506062423 12 243 8.0 17.7 0.00 0.00 0.00 7 1009.9
20260506061923 12 186 1.6 16.1 0.00 0.00 0.00 7 1009.9
20260506061423 12 215 11.3 17.7 0.00 0.00 0.00 7 1010.0
20260506060923 12 246 3.2 9.7 0.00 0.00 0.00 7 1009.7
20260506060423 12 182 3.2 12.9 0.00 0.00 0.00 7 1009.7